Regional Weather Roundup
Issued by NWS Midland/Odessa, TX

Skip options and go directly to product.
Home | Oldest Version | Next Version | Current Version | All | Text Only | Save Text | Print | Product List | Glossary On

Skip product version selection by date and time.   
073
ASUS44 KMAF 291302
RWRMAF
MIDLAND AREA WEATHER ROUNDUP
NATIONAL WEATHER SERVICE MIDLAND TX
800 AM CDT WED OCT 29 2014

...IN SOUTHWEST TEXAS AND SOUTHEAST NEW MEXICO...

CITY           SKY/WX    TMP DP  RH WIND       PRES   REMARKS
ALPINE         CLEAR     42  38  86 W5        30.30R WCI  39
ANDREWS        FAIR      44  38  78 E3        30.24R
ARTESIA        NOT AVBL
BIG SPRING     CLEAR     54  40  60 NE3       30.24S
CARLSBAD       CLEAR     43  39  86 NW6       30.22R WCI  39
DRYDEN           N/A     64  51  62 N7        30.15R
FORT STOCKTON  CLEAR     51  42  71 S5        30.21R
GUAD PASS      NOT AVBL
HOBBS          CLEAR     45  39  81 N5        30.25R
MARFA          CLEAR     45  39  81 N7        30.25S
MIDLAND AIRPK  CLEAR     50  40  70 NE5       30.23R
MIDLAND INTL   CLEAR     50  39  66 NE8       30.22R
ODESSA         CLEAR     49  38  65 NE9       30.23R
PECOS          CLEAR     47  43  84 N5        30.22R
PRESIDIO       FAIR      59  45  58 NW7       30.16R
SEMINOLE       CLEAR     45  37  76 CALM      30.25R
SNYDER         CLEAR     48  38  68 NE6       30.24R
WINK           CLEAR     47  39  74 N6        30.21R
$$
...OTHER STATIONS IN TEXAS...

CITY           SKY/WX    TMP DP  RH WIND       PRES   REMARKS
ABILENE        CLEAR     50  40  68 CALM      30.23R
AMARILLO       CLEAR     40  34  79 S8        30.24F WCI  34
AUSTIN         CLOUDY    68  64  87 N13       30.12R
BROWNSVILLE    MOCLDY    69  68  96 CALM      30.05R
CORPUS CHRISTI PTCLDY    68  67  96 CALM      30.06R
DALLAS FTW     PTCLDY    54  47  77 N7        30.19R
DEL RIO        CLEAR     62  60  93 W5        30.10R
EL PASO        CLEAR     53  42  66 N6        30.18R
HOUSTON INT    PTCLDY    66  65  96 CALM      30.09R
LUBBOCK        CLEAR     42  34  73 E7        30.25R WCI  38
SAN ANGELO     CLOUDY    59  44  57 NE8       30.20R
SAN ANTONIO    CLOUDY    69  63  81 CALM      30.12R
WACO           CLOUDY    63  55  75 N10       30.15R
WICHITA FALLS  NOT AVBL
$$
...OTHER LOCATIONS IN NEW MEXICO...

CITY           SKY/WX    TMP DP  RH WIND       PRES   REMARKS
ALAMAGORDO     NOT AVBL
ALBUQUERQUE    CLEAR     47  23  38 N8        30.28R
CANNON AFB     CLEAR     41  36  82 CALM      30.26R
CLOVIS         CLEAR     37  30  75 CALM      30.28S
HOLLOMAN AFB   CLEAR     43  34  69 NE3       30.20R
ROSWELL        CLEAR     43  38  82 CALM      30.23R
RUIDOSO        CLEAR     45  32  61 CALM      30.32S
SANTA FE       CLEAR     37  14  38 N16       30.29R WCI  28
TRUTH OR CONSE CLEAR     47  37  68 NW8       30.23R
TUCUMCARI      CLEAR     41  36  82 CALM      30.22R
$$

USA.gov is the U.S. government's official web portal to all federal, state and local government web resources and services.